| time (UTC) | temp F | wind direction | speed knots | gust knots | rain 1hr in | rain 24hr in | rain mn in | humidity % | barometer mb |
| 20260503110309 | 60 | 17 | 8.7 | 17.4 | 0.00 | 0.00 | 0.00 | 66 | 1013.6 |
| 20260503090309 | 63 | 35 | 6.1 | 13.9 | 0.00 | 0.00 | 0.00 | 63 | 1014.0 |
| 20260503080910 | 63 | 0 | 0.0 | 17.4 | 0.00 | 0.00 | 0.00 | 65 | 1014.4 |
| 20260503080309 | 63 | 22 | 2.6 | 17.4 | 0.00 | 0.00 | 0.00 | 65 | 1014.3 |
| 20260503072411 | 63 | 0 | 4.3 | 13.0 | 0.00 | 0.00 | 0.00 | 63 | 1014.7 |
| 20260503071810 | 63 | 0 | 11.3 | 13.0 | 0.00 | 0.00 | 0.00 | 63 | 1014.7 |
| 20260503070912 | 63 | 351 | 3.5 | 13.0 | 0.00 | 0.00 | 0.00 | 62 | 1014.7 |
| 20260503070310 | 63 | 14 | 0.9 | 13.0 | 0.00 | 0.00 | 0.00 | 62 | 1014.7 |
| 20260503060310 | 65 | 5 | 15.6 | 15.6 | 0.00 | 0.00 | 0.00 | 57 | 1014.3 |
| 20260503054810 | 65 | 35 | 6.1 | 12.2 | 0.00 | 0.00 | 0.00 | 56 | 1014.6 |
| 20260503053911 | 65 | 27 | 4.3 | 11.3 | 0.00 | 0.00 | 0.00 | 56 | 1014.7 |
| 20260503053310 | 65 | 0 | 0.0 | 8.7 | 0.00 | 0.00 | 0.00 | 57 | 1014.9 |
| 20260503052411 | 65 | 14 | 0.9 | 7.0 | 0.00 | 0.00 | 0.00 | 57 | 1014.8 |
| 20260503051810 | 65 | 5 | 2.6 | 7.0 | 0.00 | 0.00 | 0.00 | 57 | 1014.9 |
| 20260503050911 | 65 | 0 | 0.0 | 7.0 | 0.00 | 0.00 | 0.00 | 57 | 1014.9 |
| 20260503050309 | 66 | 0 | 0.0 | 7.0 | 0.00 | 0.00 | 0.00 | 57 | 1014.9 |
| 20260503045411 | 65 | 0 | 0.0 | 6.1 | 0.00 | 0.00 | 0.00 | 56 | 1014.9 |
| 20260503044809 | 66 | 0 | 0.0 | 5.2 | 0.00 | 0.00 | 0.00 | 57 | 1014.8 |
| 20260503043911 | 66 | 0 | 0.0 | 0.9 | 0.00 | 0.00 | 0.00 | 58 | 1014.7 |
| 20260503043309 | 66 | 0 | 0.0 | 0.0 | 0.00 | 0.00 | 0.00 | 57 | 1014.7 |
| 20260503042411 | 66 | 0 | 0.0 | 2.6 | 0.00 | 0.00 | 0.00 | 59 | 1014.7 |
| 20260503041809 | 66 | 0 | 0.0 | 2.6 | 0.00 | 0.00 | 0.00 | 60 | 1014.5 |
| 20260503040911 | 67 | 0 | 0.0 | 2.6 | 0.00 | 0.00 | 0.00 | 55 | 1014.5 |
| 20260503040309 | 67 | 0 | 0.0 | 2.6 | 0.00 | 0.00 | 0.00 | 56 | 1014.2 |
| 20260503035411 | 67 | 327 | 5.2 | 10.4 | 0.00 | 0.00 | 0.00 | 55 | 1014.1 |
| 20260503034809 | 67 | 19 | 4.3 | 7.8 | 0.00 | 0.00 | 0.00 | 55 | 1014.0 |
| 20260503033910 | 68 | 0 | 0.0 | 7.0 | 0.00 | 0.00 | 0.00 | 54 | 1013.9 |
| 20260503033309 | 68 | 0 | 0.0 | 0.0 | 0.00 | 0.00 | 0.00 | 54 | 1013.8 |